Stündliche Wetter Abakonovo

Heute, 2 März, Dienstag

Zeit Temperatur Niederschläge Wind Luftdruck Luftfeuchtigkeit
00:00 0°C° 0 mm 5 m/S 743 mmHg 90%
01:00 0°C° 0 mm 5 m/S 743 mmHg 90%
02:00 0°C° 0 mm 5 m/S 743 mmHg 91%
03:00 0°C° 0 mm 5 m/S 743 mmHg 90%
04:00 -1°C° 0 mm 5 m/S 742 mmHg 89%
05:00 -1°C° 0 mm 5 m/S 742 mmHg 89%
06:00 -1°C° 0.1 mm 5 m/S 741 mmHg 91%
07:00 -1°C° 0.1 mm 5 m/S 741 mmHg 93%
08:00 -1°C° 0 mm 5 m/S 742 mmHg 95%
09:00 -1°C° 0.3 mm 5 m/S 741 mmHg 96%
10:00 -1°C° 0.3 mm 4 m/S 741 mmHg 96%
11:00 -1°C° 0.3 mm 4 m/S 741 mmHg 96%
12:00 -1°C° 0.2 mm 4 m/S 741 mmHg 96%
13:00 -1°C° 0.2 mm 5 m/S 741 mmHg 95%
14:00 -1°C° 0 mm 5 m/S 741 mmHg 95%
15:00 -1°C° 0 mm 5 m/S 742 mmHg 90%
16:00 -1°C° 0 mm 5 m/S 742 mmHg 85%
17:00 0°C° 0 mm 5 m/S 742 mmHg 79%
18:00 -1°C° 0 mm 5 m/S 743 mmHg 79%
19:00 -1°C° 0 mm 5 m/S 744 mmHg 80%
20:00 -2°C° 0 mm 6 m/S 745 mmHg 80%
21:00 -2°C° 0 mm 5 m/S 745 mmHg 82%
22:00 -2°C° 0 mm 4 m/S 745 mmHg 83%
23:00 -3°C° 0 mm 4 m/S 745 mmHg 85%

Morgen, 3 März, Mittwoch

Zeit Temperatur Niederschläge Wind Luftdruck Luftfeuchtigkeit
00:00 -3°C° 0 mm 4 m/S 746 mmHg 85%
01:00 -3°C° 0 mm 4 m/S 746 mmHg 85%
02:00 -3°C° 0 mm 4 m/S 747 mmHg 85%
03:00 -2°C° 0 mm 3 m/S 746 mmHg 88%
04:00 -2°C° 0 mm 3 m/S 746 mmHg 91%
05:00 -2°C° 0 mm 3 m/S 746 mmHg 93%
06:00 -3°C° 0 mm 4 m/S 746 mmHg 91%
07:00 -3°C° 0 mm 4 m/S 746 mmHg 89%
08:00 -3°C° 0 mm 4 m/S 746 mmHg 87%
09:00 -3°C° 0 mm 4 m/S 746 mmHg 85%
10:00 -2°C° 0 mm 4 m/S 746 mmHg 83%
11:00 -2°C° 0 mm 4 m/S 745 mmHg 81%
12:00 -2°C° 0 mm 4 m/S 745 mmHg 81%
13:00 -2°C° 0 mm 5 m/S 745 mmHg 81%
14:00 -2°C° 0 mm 5 m/S 744 mmHg 81%
15:00 -2°C° 0 mm 4 m/S 744 mmHg 82%
16:00 -1°C° 0 mm 4 m/S 743 mmHg 82%
17:00 -1°C° 0 mm 4 m/S 742 mmHg 82%
18:00 -1°C° 0.1 mm 4 m/S 742 mmHg 83%
19:00 -1°C° 0.1 mm 4 m/S 741 mmHg 85%
20:00 0°C° 0.1 mm 4 m/S 741 mmHg 86%
21:00 -1°C° 0 mm 5 m/S 740 mmHg 85%
22:00 -1°C° 0 mm 5 m/S 739 mmHg 84%
23:00 -1°C° 0 mm 5 m/S 738 mmHg 84%

übermorgen, 4 März, Donnerstag

Zeit Temperatur Niederschläge Wind Luftdruck Luftfeuchtigkeit
00:00 -1°C° 0 mm 5 m/S 737 mmHg 85%
01:00 -2°C° 0 mm 5 m/S 737 mmHg 87%
02:00 -2°C° 0 mm 4 m/S 736 mmHg 89%
03:00 -2°C° 0.1 mm 4 m/S 736 mmHg 91%
04:00 -2°C° 0.1 mm 4 m/S 735 mmHg 94%
05:00 -1°C° 0.1 mm 3 m/S 734 mmHg 97%
06:00 -1°C° 0.5 mm 3 m/S 734 mmHg 97%
07:00 -1°C° 0.5 mm 3 m/S 734 mmHg 97%
08:00 -1°C° 0.5 mm 2 m/S 734 mmHg 97%
09:00 -1°C° 0.4 mm 2 m/S 733 mmHg 97%
10:00 -1°C° 0.4 mm 2 m/S 733 mmHg 96%
11:00 -1°C° 0.4 mm 2 m/S 733 mmHg 96%
12:00 -1°C° 0.6 mm 2 m/S 733 mmHg 95%
13:00 -1°C° 0.6 mm 2 m/S 732 mmHg 95%
14:00 -2°C° 0.6 mm 3 m/S 732 mmHg 95%
15:00 -2°C° 0.4 mm 2 m/S 732 mmHg 91%
16:00 -2°C° 0.4 mm 2 m/S 732 mmHg 88%
17:00 -3°C° 0.4 mm 2 m/S 732 mmHg 85%
18:00 -3°C° 0 mm 2 m/S 732 mmHg 85%
19:00 -4°C° 0 mm 2 m/S 733 mmHg 85%
20:00 -4°C° 0 mm 2 m/S 733 mmHg 85%
21:00 -5°C° 0 mm 2 m/S 733 mmHg 86%
22:00 -6°C° 0 mm 2 m/S 734 mmHg 87%
23:00 -4°C° 0 mm 1 m/S 734 mmHg 89%

5 März, Freitag

Zeit Temperatur Niederschläge Wind Luftdruck Luftfeuchtigkeit
00:00 -6°C° 0.1 mm 2 m/S 735 mmHg 90%
01:00 -6°C° 0.1 mm 2 m/S 735 mmHg 91%
02:00 -7°C° 0.1 mm 3 m/S 736 mmHg 92%
03:00 -7°C° 0.1 mm 3 m/S 736 mmHg 91%
04:00 -8°C° 0.1 mm 3 m/S 736 mmHg 91%
05:00 -8°C° 0.1 mm 3 m/S 736 mmHg 90%
06:00 -8°C° 0 mm 3 m/S 737 mmHg 90%
07:00 -8°C° 0 mm 3 m/S 737 mmHg 89%
08:00 -8°C° 0 mm 3 m/S 737 mmHg 88%
09:00 -7°C° 0 mm 3 m/S 738 mmHg 83%
10:00 -7°C° 0 mm 3 m/S 738 mmHg 78%
11:00 -6°C° 0 mm 3 m/S 738 mmHg 73%
12:00 -6°C° 0 mm 3 m/S 739 mmHg 70%
13:00 -5°C° 0 mm 3 m/S 739 mmHg 68%
14:00 -5°C° 0 mm 3 m/S 739 mmHg 66%
15:00 -5°C° 0.1 mm 2 m/S 740 mmHg 69%
16:00 -5°C° 0.1 mm 2 m/S 740 mmHg 72%
17:00 -6°C° 0.1 mm 2 m/S 740 mmHg 75%
18:00 -7°C° 0 mm 2 m/S 740 mmHg 78%
19:00 -6°C° 0 mm 1 m/S 741 mmHg 80%
20:00 -7°C° 0 mm 1 m/S 741 mmHg 83%
21:00 -8°C° 0 mm 1 m/S 742 mmHg 84%
22:00 -8°C° 0 mm 1 m/S 742 mmHg 86%
23:00 -8°C° 0 mm 1 m/S 742 mmHg 87%

6 März, Samstag

Zeit Temperatur Niederschläge Wind Luftdruck Luftfeuchtigkeit
00:00 -9°C° 0 mm 1 m/S 743 mmHg 89%
01:00 -9°C° 0 mm 1 m/S 743 mmHg 91%
02:00 -9°C° 0 mm 1 m/S 743 mmHg 92%
03:00 -9°C° 0 mm 1 m/S 743 mmHg 94%
04:00 -10°C° 0 mm 2 m/S 744 mmHg 95%
05:00 -10°C° 0 mm 2 m/S 744 mmHg 96%
06:00 -10°C° 0 mm 2 m/S 744 mmHg 93%
07:00 -10°C° 0 mm 2 m/S 744 mmHg 91%
08:00 -10°C° 0 mm 3 m/S 744 mmHg 88%
09:00 -9°C° 0 mm 3 m/S 744 mmHg 83%
10:00 -9°C° 0 mm 3 m/S 745 mmHg 78%
11:00 -8°C° 0 mm 3 m/S 745 mmHg 73%
12:00 -7°C° 0 mm 3 m/S 744 mmHg 71%
13:00 -7°C° 0 mm 3 m/S 744 mmHg 68%
14:00 -6°C° 0 mm 3 m/S 744 mmHg 65%
15:00 -6°C° 0 mm 3 m/S 743 mmHg 67%
16:00 -7°C° 0 mm 3 m/S 742 mmHg 69%
17:00 -8°C° 0 mm 4 m/S 742 mmHg 71%
18:00 -8°C° 0 mm 4 m/S 741 mmHg 72%
19:00 -8°C° 0 mm 5 m/S 740 mmHg 74%
20:00 -9°C° 0 mm 6 m/S 739 mmHg 75%
21:00 -9°C° 0.3 mm 6 m/S 738 mmHg 80%
22:00 -9°C° 0.3 mm 7 m/S 737 mmHg 85%
23:00 -9°C° 0.3 mm 7 m/S 735 mmHg 90%

7 März, Sonntag

Zeit Temperatur Niederschläge Wind Luftdruck Luftfeuchtigkeit
00:00 -8°C° 0.6 mm 7 m/S 734 mmHg 91%
01:00 -8°C° 0.6 mm 7 m/S 733 mmHg 91%
02:00 -7°C° 0.6 mm 7 m/S 732 mmHg 92%
03:00 -7°C° 0.4 mm 7 m/S 730 mmHg 92%
04:00 -6°C° 0.4 mm 8 m/S 729 mmHg 92%
05:00 -6°C° 0.4 mm 8 m/S 727 mmHg 92%
06:00 -5°C° 0.5 mm 8 m/S 727 mmHg 92%
07:00 -5°C° 0.5 mm 8 m/S 726 mmHg 92%
08:00 -4°C° 0.5 mm 9 m/S 726 mmHg 92%
09:00 -5°C° 0.8 mm 9 m/S 726 mmHg 83%
10:00 -8°C° 0.8 mm 9 m/S 726 mmHg 73%
11:00 -9°C° 0.8 mm 9 m/S 726 mmHg 64%
12:00 -9°C° 0 mm 9 m/S 726 mmHg 65%
13:00 -8°C° 0 mm 8 m/S 727 mmHg 65%
14:00 -8°C° 0 mm 8 m/S 727 mmHg 66%
15:00 -10°C° 0 mm 8 m/S 727 mmHg 67%
16:00 -9°C° 0 mm 7 m/S 727 mmHg 68%
17:00 -9°C° 0 mm 7 m/S 727 mmHg 69%
18:00 -10°C° 0 mm 6 m/S 727 mmHg 72%
19:00 -10°C° 0 mm 6 m/S 727 mmHg 74%
20:00 -11°C° 0 mm 6 m/S 728 mmHg 76%
21:00 -11°C° 0 mm 6 m/S 728 mmHg 78%
22:00 -11°C° 0 mm 5 m/S 728 mmHg 79%
23:00 -12°C° 0 mm 5 m/S 729 mmHg 80%
Mehr zeigen

Wir brauchen deine Erlaubnis

Meteoprog und unser Service Anbieter werden persönliche Daten aufbewahren, so wie Cookies, Geräte Bezeichnung oder ähnliche Technologien von deinem Gerät und Prozess, so wie Persönliche Daten Inhalte und Werbungen, genauso wie social Media und den Verkehr zu analysieren.

  • Aufbewahrung und/oder Zugang zu deiner Geräte Informationen.

    Cookies, Geräte Bezeichnung oder andere Informationen, können aufbewahrt oder Zugang zu deinem Gerät erhalten, für den Grund, der oben angegeben wird.

  • Personalisierte Werbung und Inhalte, Messungen, Einblick in das Publikum und Produkt Entwicklung.

    Werbungen und Inhalte können personalisiert werden, basierend auf ein Profil. Mehr Daten können besser personalisierte Werbungen und Inhalte hinzufügen. Werbung und Inhalte können gezeigt und gemessen werden. Einblicke über das Publikum, welche die Werbung gesehen haben und den Inhalt, können abgeleitet werden. So wie Daten können genutzt werden, um es zu verbessern oder die Benutzer Erfahrung zu verbessern das System und die Software.

Wenn du “Ich stimme zu” klickst, erlaubst du uns, die Cookies zu benutzen die Geräte Bezeichnung, den Web oder ähnliche Technologien zu benutzen. Deine Settings, können in deinem Gerät bei deinem Browser geändert werden.

Für den bestimmten Zweck, berechtigten Interessen beruhen darauf, mehr als auf den Inhalt. Du kannst mehr darüber in unseren Privaten und Cookie Politik lesen.